This is the latest recevied weather packets stored in our database for station/object FW0690. If no packets are shown the sender has not sent any weather packets the latest 10 day(s).
| Time | Temp. | Humidity | Pressure | Rain* | Wind** | Luminosity | Snow |
|---|---|---|---|---|---|---|---|
| 1777896518 | 28.33° C | 21% | 1013.6 hPa | - | - | 52 W/m² | - |
| 1777896158 | 28.89° C | 22% | 1013.7 hPa | - | - | 55 W/m² | - |
| 1777895798 | 27.78° C | 22% | 1013.7 hPa | - | - | 59 W/m² | - |
| 1777895438 | 26.67° C | 22% | 1013.8 hPa | - | - | 60 W/m² | - |
| 1777895078 | 25.56° C | 22% | 1013.8 hPa | - | - | 59 W/m² | - |
| 1777894718 | 25.56° C | 22% | 1013.9 hPa | - | - | 58 W/m² | - |
| 1777894358 | 26.11° C | 23% | 1013.9 hPa | - | - | 59 W/m² | - |
| 1777893998 | 25.56° C | 23% | 1013.9 hPa | - | - | 61 W/m² | - |
| 1777893638 | 26.11° C | 23% | 1013.9 hPa | - | - | 60 W/m² | - |
| 1777893278 | 26.11° C | 23% | 1013.9 hPa | - | - | 64 W/m² | - |
| 1777892918 | 25.56° C | 23% | 1014 hPa | - | - | 65 W/m² | - |
| 1777892559 | 24.44° C | 24% | 1014.1 hPa | - | - | 63 W/m² | - |
| 1777892558 | 24.44° C | 24% | 1014.1 hPa | - | - | 63 W/m² | - |
| 1777892200 | 24.44° C | 23% | 1014.1 hPa | - | - | 59 W/m² | - |
| 1777891839 | 25° C | 23% | 1014.1 hPa | - | - | 54 W/m² | - |
| 1777891838 | 25° C | 23% | 1014.1 hPa | - | - | 54 W/m² | - |
| 1777891478 | 24.44° C | 23% | 1014.2 hPa | - | - | 50 W/m² | - |
| 1777891118 | 25.56° C | 23% | 1014.3 hPa | - | - | 49 W/m² | - |
| 1777890758 | 25.56° C | 23% | 1014.3 hPa | - | - | 58 W/m² | - |
| 1777890398 | 25.56° C | 24% | 1014.4 hPa | - | - | 63 W/m² | - |
| 1777890038 | 25° C | 24% | 1014.4 hPa | - | - | 61 W/m² | - |
| 1777889679 | 24.44° C | 23% | 1014.4 hPa | - | - | 58 W/m² | - |
| 1777889678 | 24.44° C | 23% | 1014.4 hPa | - | - | 58 W/m² | - |
| 1777889318 | 24.44° C | 23% | 1014.4 hPa | - | - | 43 W/m² | - |
| 1777888958 | 25° C | 23% | 1014.4 hPa | - | - | 97 W/m² | - |
* Rain since midnight (hover to see other rain measurements)
** Current wind speed in m/s (hover to see current wind gust speed)